Istanbul, Turkey

11:46 AM +03 on January 18, 2017 (GMT +0300)
Istanbul

Weather History for 17060 - October, 2012

Change the Weather History Date:

Wednesday, October 24, 2012

  Actual Average Record
Temperature  
Mean Temperature 64 °F -  
Max Temperature 67 °F 59 °F - ()
Min Temperature 62 °F 49 °F - ()
Growing Degree Days 14 (Base 50)    
Moisture  
Dew Point 54 °F    
Average Humidity 68    
Maximum Humidity 83    
Minimum Humidity 47    
Precipitation  
Precipitation 0.00 in - - ()
Sea Level Pressure  
Sea Level Pressure 30.03 in    
Wind  
Wind Speed 13 mph ()    
Max Wind Speed 20 mph    
Max Gust Speed 28 mph    
Visibility 6.3 miles    
Events Thunderstorm    
T = Trace of Precipitation, MM = Missing Value Source: Averaged Metar Reports

Daily Weather History Graph

Daily Weather History Graph

Search for Another Location

Airport or City:

Trip Planner

Search our weather history database for the weather conditions in past years. The results will help you decide how hot, cold, wet, or windy it might be!

Date:

Astronomy

Oct. 24, 2012 Rise Set
Actual Time 7:26 AM EEST 6:10 PM EEST
Civil Twilight 6:58 AM EEST 6:38 PM EEST
Nautical Twilight 6:26 AM EEST 7:10 PM EEST
Astronomical Twilight 5:54 AM EEST 7:42 PM EEST
Moon 3:18 PM EEST (10/24) 1:58 AM EEST (10/24)
Length of Visible Light 11h 40m
Length of Day
10h 44m
Waxing Gibbous, 73% of the Moon is Illuminated
Oct 24
Waxing Gibbous
Oct 29
Full
Nov 7
Last Quarter
Nov 14
New
Nov 20
First Quarter

Hourly Weather History & Observations

Time (EEST) Temp. Dew Point Humidity Pressure Visibility Wind Dir Wind Speed Gust Speed Precip Events Conditions
12:20 AM 64.4 °F 57.2 °F 77% 30.01 in 6.2 mi NE 12.7 mph - N/A Thunderstorm Thunderstorm
12:50 AM 64.4 °F 55.4 °F 73% 30.01 in 6.2 mi NNE 13.8 mph - N/A Thunderstorm Thunderstorm
1:20 AM 64.4 °F 59.0 °F 83% 30.01 in 6.2 mi NNE 13.8 mph - N/A Thunderstorm Thunderstorm
1:50 AM 64.4 °F 59.0 °F 83% 30.01 in 6.2 mi NNE 12.7 mph - N/A Thunderstorm Thunderstorm
2:20 AM 64.4 °F 59.0 °F 83% 30.01 in 6.2 mi NNE 11.5 mph - N/A Thunderstorm Thunderstorm
2:50 AM 64.4 °F 59.0 °F 83% 30.01 in 6.2 mi NNE 12.7 mph - N/A Thunderstorm Thunderstorm
3:00 AM 64 °F 59 °F 79% 30.01 in 6 mi NNE 12.7 mph - - Thunderstorm Thunderstorm
3:20 AM 64.4 °F 57.2 °F 77% 30.01 in 6.2 mi NNE 15.0 mph - N/A   Mostly Cloudy
3:50 AM 64.4 °F 57.2 °F 77% 29.98 in 6.2 mi NNE 13.8 mph - N/A   Mostly Cloudy
4:20 AM 64.4 °F 57.2 °F 77% 29.98 in 6.2 mi NNE 11.5 mph - N/A   Mostly Cloudy
4:50 AM 64.4 °F 55.4 °F 73% 29.98 in 6.2 mi NNE 12.7 mph - N/A   Mostly Cloudy
5:20 AM 64.4 °F 57.2 °F 77% 30.01 in 6.2 mi North 12.7 mph - N/A   Mostly Cloudy
5:50 AM 64.4 °F 57.2 °F 77% 30.01 in 6.2 mi North 15.0 mph - N/A   Scattered Clouds
6:20 AM 64.4 °F 55.4 °F 73% 30.01 in 6.2 mi North 16.1 mph - N/A   Scattered Clouds
6:50 AM 62.6 °F 55.4 °F 77% 30.01 in 6.2 mi North 16.1 mph - N/A   Mostly Cloudy
7:20 AM 62.6 °F 55.4 °F 77% 30.01 in 6.2 mi North 17.3 mph - N/A   Mostly Cloudy
7:50 AM 62.6 °F 55.4 °F 77% 30.01 in 6.2 mi North 17.3 mph - N/A   Mostly Cloudy
8:20 AM 64.4 °F 53.6 °F 68% 30.01 in 6.2 mi North 16.1 mph 27.6 mph N/A   Mostly Cloudy
8:50 AM 66.2 °F 53.6 °F 64% 30.01 in 6.2 mi North 15.0 mph - N/A   Mostly Cloudy
9:20 AM 66.2 °F 53.6 °F 64% 30.04 in 6.2 mi North 13.8 mph - N/A   Mostly Cloudy
9:50 AM 64.4 °F 53.6 °F 68% 30.04 in 6.2 mi NNE 13.8 mph - N/A   Mostly Cloudy
10:50 AM 64.4 °F 51.8 °F 64% 30.04 in 6.2 mi North 16.1 mph - N/A   Mostly Cloudy
11:20 AM 64.4 °F 51.8 °F 64% 30.04 in 6.2 mi North 19.6 mph - N/A   Mostly Cloudy
11:50 AM 66.2 °F 51.8 °F 60% 30.06 in 6.2 mi NNE 17.3 mph - N/A   Mostly Cloudy
12:20 PM 66.2 °F 50.0 °F 56% 30.06 in 6.2 mi NNE 19.6 mph - N/A   Mostly Cloudy
12:50 PM 66.2 °F 50.0 °F 56% 30.04 in 6.2 mi NNE 18.4 mph - N/A   Scattered Clouds
1:20 PM 66.2 °F 51.8 °F 60% 30.04 in 6.2 mi NNE 18.4 mph - N/A   Scattered Clouds
1:50 PM 66.2 °F 50.0 °F 56% 30.04 in 6.2 mi North 19.6 mph - N/A   Scattered Clouds
2:20 PM 68.0 °F 51.8 °F 56% 30.04 in 6.2 mi NNE 15.0 mph - N/A   Scattered Clouds
2:50 PM 68.0 °F 51.8 °F 56% 30.04 in 6.2 mi NNE 16.1 mph - N/A   Scattered Clouds
3:00 PM 67 °F 52 °F 47% 30.03 in 6 mi NNE 16.1 mph - -   Partly Cloudy
3:20 PM 66.2 °F 51.8 °F 60% 30.01 in 6.2 mi North 18.4 mph - N/A   Scattered Clouds
3:50 PM 66.2 °F 51.8 °F 60% 30.04 in 6.2 mi NNE 16.1 mph - N/A   Scattered Clouds
4:20 PM 64.4 °F 51.8 °F 64% 30.04 in 6.2 mi NNE 18.4 mph - N/A   Scattered Clouds
4:50 PM 64.4 °F 51.8 °F 64% 30.04 in 6.2 mi North 17.3 mph - N/A   Scattered Clouds
5:20 PM 64.4 °F 51.8 °F 64% 30.04 in 6.2 mi North 18.4 mph - N/A   Scattered Clouds
5:50 PM 62.6 °F 51.8 °F 68% 30.04 in 6.2 mi North 16.1 mph - N/A   Scattered Clouds
6:20 PM 62.6 °F 51.8 °F 68% 30.04 in 6.2 mi North 15.0 mph - N/A   Scattered Clouds
6:50 PM 62.6 °F 51.8 °F 68% 30.04 in 6.2 mi North 16.1 mph - N/A   Scattered Clouds
7:20 PM 62.6 °F 51.8 °F 68% 30.04 in 6.2 mi NNE 13.8 mph - N/A   Scattered Clouds
7:50 PM 64.4 °F 51.8 °F 64% 30.04 in 6.2 mi NNE 13.8 mph - N/A   Scattered Clouds
8:20 PM 62.6 °F 51.8 °F 68% 30.04 in 6.2 mi Variable 9.2 mph - N/A   Scattered Clouds
8:50 PM 66.2 °F 51.8 °F 60% 30.04 in 6.2 mi NNE 10.4 mph - N/A   Scattered Clouds
9:00 PM 66 °F 51 °F 49% 30.05 in 12 mi NNE 10.4 mph - -   Partly Cloudy
9:20 PM 64.4 °F 51.8 °F 64% 30.04 in 6.2 mi NNE 9.2 mph - N/A   Scattered Clouds
9:50 PM 62.6 °F 51.8 °F 68% 30.04 in 6.2 mi NNE 10.4 mph - N/A   Scattered Clouds
10:20 PM 62.6 °F 51.8 °F 68% 30.04 in 6.2 mi NNE 11.5 mph - N/A   Mostly Cloudy
10:50 PM 62.6 °F 51.8 °F 68% 30.04 in 6.2 mi North 11.5 mph - N/A   Mostly Cloudy
11:20 PM 62.6 °F 51.8 °F 68% 30.04 in 6.2 mi NNE 9.2 mph - N/A   Mostly Cloudy
11:50 PM 62.6 °F 51.8 °F 68% 30.04 in 6.2 mi NNE 11.5 mph - N/A   Mostly Cloudy